Location: Dana
(41.8364°N, 106.7042°W)
Time: 14:44:27
(UTC+00:00)

SR - Pass Details

Date: 12 May 2026
Orbit: 567 x 853 km, 66.7° (Epoch: 7 June)

Event Time Altitude Azimuth Distance (km) Brightness Sun altitude
Rises 15:36:37 0° 233° (SW) 2,963 ? 40.4°
Reaches altitude 10° 15:38:59 10° 241° (WSW) 2,101 ? 40.8°
Maximum altitude 15:43:25 37° 309° (NW) 1,109 ? 41.6°
Drops below altitude 10° 15:48:14 10° 17° (NNE) 2,290 ? 42.5°
Sets 15:50:55 0° 25° (NNE) 3,268 ? 43.0°
